"Pseudo-MPEC" for OCA1315

Created 2022 Sep 25 7:22:31 UT using Find_Orb

Click here for an explanation of pseudo-MPECs

 
 Astrometry: 
     OCA1315*KC2022 07 22A86wRr)o12%aP[QdB_%wZB+sM3G]U@Okq(d!QO?=TGjW22sKkp_gX74
     OCA1315 KC2022 07 22VXoiZRD[Astrometryjq=.rn]kflq3\)EHJ9M/[)BPr\qV=aM[I)X74
     OCA1315 KC2022 07 22`kIR=]hF\6-*Ope2lo_nQ0JHKR]t,AZQjgnMUn0FqqPAo34dL\o\X74
     OCA1315 KC2022 07 22a=-mU'yv;*@(Sn8GX^r)hsJ]`8!2upn\gUOv6(LQ2mZeaLgs0_xXL87
     OCA1315 KC2022 07 225?6*:`RP'-%$C-PO?Cc_^5L1E13wDn23HG'bSWia\m^Cx3Av!Z1'L87
     OCA1315 KC2022 07 22k0mY-7M?-:gTA).RsIh@-1uM:q)t]demWD!HK@Vebd`kr8du+)kIL87
     OCA1315 KC2022 07 23.04619321 47 34.686-38 24 56.26   ~7N27 19.5 GXNEOCPY00
     OCA1315 KC2022 07 23.05242721 47 29.512-38 26 24.94   ~7N27 19.3 GXNEOCPY00
     OCA1315 KC2022 07 23.05842021 47 24.550-38 27 49.71   ~7N27 19.2 GXNEOCPY00
     OCA1315 KC2022 07 23$scOV72@#R!''!0Fcu-UmysCZXLK\*DE3T7FunMI-'P.8wL3^[Z]X74
     OCA1315 KC2022 07 23T#q3)CIgAn!v_GKSMR#4YSvK*H8B)s8PQ%ZtN!pvl\#qiPIl\;.*X74
     OCA1315 KC2022 07 23=FM!s-mJ^r^3_)vbO2?pInh+H)mS!:ZgAo7YAOFA5OqQX^p2`@[.X74
     OCA1315 KC2022 07 23/A1l4dG(xIpsraRm7y4L(`W;D'M^/F1*WWuY!M\qFUXyHoR7uZQ,X74
     OCA1315 KC2022 07 23uO4#3jf3!pE2h@kiHN`n]sG_ByPrZ'$/Vl2C\x17nV$]vIxQAmh:X74
     OCA1315 KC2022 07 23:N6:X.N`g]pYJnp%aK[?.1ih0t/WcIq7`eIH9c5QZIU(sW-Z(Bj-X74
     OCA1315 KC2022 07 23CY==hNlFqR1A%^j09e2BaF%)Fo7CN.aq]Ac]moHhIML97E,Ey-e$221
     OCA1315 KC2022 07 23jes[cj$M'E6l_fZbn-+,bbQ[a8F?)eldNn.RuiRe-DJtY3B@iML+221
     OCA1315 KC2022 07 23iWfPp2ISRqZdg`IsKWqP+P=MJ,TP7x.X(XjR1vn\1XxrfKDwBt(M221
     OCA1315 KC2022 07 24k/wQ=NB;6DnEvYAj;RX*uDUsARG#%8fVi)*1E@2ChW?GRc=+?uinX74
     OCA1315 KC2022 07 24sygnQ4KVL72;@q'?k9bZp[[HxR-'Q2PH'hs7;0I0Qt7Jf*3Tn[WGX74
     OCA1315 KC2022 07 244e;oQpEQrtl=5Ay-;k2'uE'*m=;:+YYO1JNC/65%kG%S=Jexyd)1X74
     OCA1315 1C2022 07 24wDL\X_\apaig*x#s%)dbqC2\B1o2Sm^5KwK2n2[T853uT:]K7Ib3Q62
     OCA1315 1C2022 07 245bi*tBQ21W0]iXoEmf_Ug[/[5sBQ`W9P;hLlT^IumPjlwVl]24uoQ62
     OCA1315 1C2022 07 2460BXa)iU3*w9QQwTpr!F=nxM:[_NS5DCyfV;IEp\*mv[xMiHkI=_Q62
     OCA1315 KC2022 07 25Gjy(*(5sLXrl43Z]x*NS)B+gTsL!=]G.rt4Qm?ZBSAqHIJ+KG7'hX74
     OCA1315 KC2022 07 25EoGu^?]W:KbaQ'AN[_I,br1GD28K^o_xDCq[Te,L8xnf3-5sI-*qX74
     OCA1315 KC2022 07 25+pcWqG7@`ie*`8La/xy-FetTm#axNmn8$?9;`^%^D%PJf_#?lI*fX74
     OCA1315 KC2022 07 25W^Z5F2cmUqIf`#J?aHx7s?wv^CECdW'Dl'0/Nj?Ejhe*k5I,^Hw1X74
     OCA1315 KC2022 07 25gN-Kr,n\=PZ/1js`48_%K/K`YWx[T/H)pMUWvkt%^7oWQ]o7bObLX74
     OCA1315 KC2022 07 25_W!@edBn5IIlEn@Ks$=B[H*_hY!n3$SjYM0wo$2?(XvyDJW;l9crX74
     OCA1315 KC2022 07 25wI;WJ/D(=iajy_`#KY_*Q6]u`:6R-K+#@M)`VFOq7N0Q,\0E@;[WL29
     OCA1315 KC2022 07 257AK'tY'y^s42NBIXm:`$kl:U8ZpMk-oiCOpvGUo[AK0=Nhdh(hYuL29
     OCA1315 KC2022 07 25(4g_:-Fc$5`S,\!;+661-_BqNK:-vvg9[['yXq_f#BAr'Wb8XIx@L29
     OCA1315 KC2022 07 25K43K1cl$xNXM7Qf#TbDjUB\3k4he:9(?ekeijmGJt^!a;/I_im;eL29
     OCA1315 KC2022 07 26P(0puYdO;]n,H]P+T6CUQ9!RanGLxP\q2*d;E!0+Jm\@R60PFbi=X74
     OCA1315 KC2022 07 26AeiRsi5s!?8d9o=t+7BHVBdE`'A@ldM0]y0qHg\nR3h]KnYM%U7$X74
     OCA1315 KC2022 07 26rE\//OF%NWvGYd)O25cTMh`o'`,2X+HPo2Y;7bLh/`,85(RrUtt;X74
     OCA1315 KC2022 07 26iVWObCaGll$K2;38)Bxi54-=@YL;.g*dy4BOM4ADlmV.Hk#G[85BX74
     OCA1315 KC2022 07 26/UV[JdH/N!CTDL'2HK%;[gu*2x+Gjtjy)FZT0]c^^`l\2sI4yNOZX74
     OCA1315 KC2022 07 26o%'WIOHws!'?6[)sDA1^3nJ`=redacted;_9Eht:mlA%pJ'mC(tUX74
     OCA1315 KC2022 07 26EkS@#k-qnh!-3i['7(xMwEp%@3xO2i]SFN:qj._kpL5+-30ve]s1M21
     OCA1315 KC2022 07 26.95168620 39 25.974-52 24 48.97   ~7QNq 19.5 GXNEOCPY00
     OCA1315 KC2022 07 26.96210320 39 12.492-52 26 43.59   ~7QNq 19.9 GXNEOCPY00
     OCA1315 KC2022 07 26.97232420 38 59.248-52 28 35.91   ~7QNq 19.7 GXNEOCPY00
     OCA1315 KC2022 07 27-RQt*Zat=ntl.l\qQ(gXqLeQ`OMKf6tRgH]H/1?W_1fQH]]P$;!*X74
     OCA1315 KC2022 07 27ZRD0YpvY`J1NMHP\3ons[ZJ)qa3OVh37@XGy(wXhHCuFF13pY`Q9X74
     OCA1315 KC2022 07 27e4dLGm)5'@/_Abgrt/tqLI=L[+B:kM.VaL)btfQ!,::'[yvjtnpCX74
     OCA1315 KC2022 07 28ewXpsMG5rb;U%5A0j'K^.'?b$d6LZ3kWFbQM$RbPnW,smM^7U/v=X74
     OCA1315 KC2022 07 286o%nYot:)fKO(V`.6WuvPBJ44Yw0vh%V6_KeSTQX]35_swWcT-`_X74
     OCA1315 KC2022 07 28)dM=CKM?m-O]F!HyUSW9fFR9Dd#xqc]T'1rJ6yC]`s@,ti+)B=vcX74
     OCA1315 HC2022 07 28=)am%:BQrIDM,xqi^j0kSPGOGD8eMott@8qLdthcHua?Ec(j'[A(M21
     OCA1315 KC2022 07 28ehW--Lclick4'!.sL48FW!n,bgJaPSR1hs:S;t1#\7kc8hereS7hM21
     OCA1315 KC2022 07 29)eE*YQF!!-Q._=w21P(+;+gSv+EOvq%)/GU=#I1Vf.hw9J(.UJ;+X74
     OCA1315 KC2022 07 29U;5+Y,0b#sXJ(vMDy9e!Cb:mD##H.#YCb8*rT-k3Wsc_rbxr'yoiX74
     OCA1315 KC2022 07 29n=gq@6iNmILV;VNpct]fortGFY?b1liea2Y$S*xis'7vSm8cu.IEX74
     OCA1315 KC2022 07 30qkZ6-E\P0xCo'U9U\PQ5CixrQXBvXmAl)(8@XNF@DMu](134F0WxX74
     OCA1315 KC2022 07 30(/V$_iq[[UcMuvP9Jv3n#c+`tNu(+Men*iTs;5.Jx\EN28yb%G?BX74
     OCA1315 KC2022 07 30S%=q-lT9??-#bav#P_M)ALWSexplanationdVoDX4f1n)\!O6:o/X74
     OCA1315 KC2022 07 31rr=Iun.#w)O.6n?+8ws$.gbDik[]`j93bW68Kxo'x0=FO8uq4cY3X74
     OCA1315 KC2022 07 31,$nCe8]RU:hG?fAG:+da[fS;aJ*$]=0b1T'#kYX+!%JAAEh6PRQeX74
     OCA1315 KC2022 07 31r*'YU1^8NH9'G:OR;TV\P!JfRVq=N!xb0/#7H#P%_GLSvYI*5+Z7X74
     OCA1315 KC2022 08 010C@q:oM917H1::Yrj^1kedAD3LYs`J]am#2bL9!]Q#nk=(=b@NS+X74
     OCA1315 KC2022 08 01mOOZUc-;3jV[HiCt(x23!Y?.v[O%44r=d,rM:4:*jO,3L'pJm)sbX74
     OCA1315 KC2022 08 01E\9ernyDf=P^DjL9O=h5*;?/^E]Ds9$8eM7/9/`w-*JF3A5IK*?#X74
     OCA1315 KC2022 08 03)dI@dG9$LQiyBSl+9i9wm_14N4:XS@\\*_n`oL2peCIWN!A9n'$]X74
     OCA1315 KC2022 08 03U8whlq$(!c_II.v6/FU,og4eBV$6]]Mlu$ZAu^$P!=T%K*;4PJ@yX74
     OCA1315 KC2022 08 037UdYehJ%Qn!VOv+g6i=jnCtcWJgx#%-g8L/N5nB6$q2c9gy(^CP'X74

Station data:
(221) IAS Observatory, Hakos  (S23.236367 E16.361700)  Namibia.  Observers D.
   Husar, L. Demetz. Measurer D. Husar. 0.2-m f/3 Riccardi-Honders + CCD0.5-m
   f/6.8 Corrected Dall-Kirkham + CCD.
(L29) Drebach-South Observatory, Windhoek  (S23.460100 E18.016900)  Namibia.
   Observer G. Lehmann. 0.4-m f/3.6 reflector + CCD.
(L87) Moonbase South Observatory, Hakos  (S23.236420 E16.361890)  Namibia.
   Observer G. Duszanowicz. 0.36-m f/7.7 reflector + CCD.
(M21) Schiaparelli Southern Observatory, Hakos  (S23.236549 E16.361440)
   Namibia.
(Q62) iTelescope Observatory, Siding Spring  (S31.273286 E149.064420)
   Australia/NSW.  Observer H. Sato. 0.51-m f/6.8 astrograph + CCD + f/4.5
   focal reducer0.43-m f/6.8 astrograph + CCD + focal reducer0.43-m f/6.8
   astrograph + CCD0.10-m f/5 astrograph + CCD0.127-m f/5.6 refractor +
   CCD0.50-m f/6.8 reflector + CCD0.30-m f/9 reflector + CCD.
(X74) Observatório Campo dos Amarais  (S21.661261 W50.849400)  Brazil.
   Observer L. S. Amaral. 0.3-m f/4 reflector + CCD.
(Y00) SONEAR Observatory, Oliveira  (S20.715080 W44.784960)  Brazil.
   Observers C. Jacques, E. Pimentel, J. Barros. Measurer C. Jacques. 0.45-m
   f/2.9 astrograph + CCD.

Orbital elements:  OCA1315
   Perihelion 2022 Jul 30.54071 +/- 0.041 TT = 12:58:37 (JD 2459791.04071)
Epoch 2022 Aug  3.0 TT = JDT 2459794.5   Earth MOID: 0.3609   Ma: 0.0220
M   0.39631401 +/- 0.0038           (J2000 ecliptic)          AutoNEOCP
n   0.11456528 +/- 0.00245          Peri.  193.78027 +/- 0.018
a   4.19856313 +/- 0.0602           Node   128.31533 +/- 0.010
e   0.6753836 +/- 0.00456           Incl.  124.04668 +/- 0.033
P   8.60                   H 19.6   G  0.15   U  8.7
q 1.36292212 +/- 0.000313    Q 7.03420415 +/- 0.12
63 of 67 observations 2022 July 22-Aug. 3; mean residual 0".52
Residuals in arcseconds: 
220722 X74  .29-  1.1-    220724 Q62  .40-  1.4-    220727 X74  .02-  .08-    
220722 X74  .69+  .14-    220725 X74  .08-  .31-    220728 X74  .64-  .27-    
220722 X74  .12+  .81-    220725 X74  .10+  .35-    220728 X74  .51-  .56-    
220722 L87  .17+  .59+    220725 X74  .03-  .24-    220728 X74  .01-  .70-    
220722 L87  .25+  .26+    220725 X74  .07-  .88+    220728 M21  .04-  .35-    
220722 L87  .55+  .11+    220725 X74  .68-  .23-    220728 M21  .28+  .01+    
220723 Y00  .02-  .22+    220725 X74  .35-  .32+    220729 X74  .40-  .08-    
220723 Y00  .02-  .07+    220725 L29  .10+  1.4+    220729 X74  .34-  .53-    
220723 Y00  .19+  .39+    220725 L29  1.2+  .02-    220729 X74  .11-  .15-    
220723 X74  .63-  .51+    220725 L29( 1.8-  1.1-)   220730 X74  .18-  .01-    
220723 X74  .62-  1.1+    220725 L29  .08+  .20+    220730 X74  .15+  .04-    
220723 X74  .73-  .61+    220726 X74  .42+  1.3+    220730 X74  .68+  .53-    
220723 X74  .06+  .01-    220726 X74  .09+  1.0+    220731 X74  .67+  .01+    
220723 X74  .35+  .27-    220726 X74  .01-  .64+    220731 X74  .22-  .13+    
220723 X74  .18-  .41+    220726 X74  1.5-  .50-    220731 X74  .37-  .43+    
220723 221( 2.3-  1.4-)   220726 X74  .81-  .06+    220801 X74  1.5+  .09+    
220723 221( 2.0-  1.5-)   220726 X74  .18+  .43+    220801 X74  .57-  .09-    
220723 221( 1.6-  1.2-)   220726 M21  .52+  .87+    220801 X74  .04-  .35-    
220724 X74  .22-  .29-    220726 Y00  .03+  .12+    220803 X74  .57-  .10-    
220724 X74  .27-  .07-    220726 Y00  .02-  .00     220803 X74  .37+  .44+    
220724 X74  .14-  .45-    220726 Y00  .02-  .16-    220803 X74  .26-  .16+    
220724 Q62  .31-  1.2-    220727 X74  .21-  .00     
220724 Q62  .36-  1.1-    220727 X74  .39+  .05-    

Ephemerides (geocentric):
Date (UTC) HH   RA             Dec           delta  r     elong  mag " sig PA
---- --------  ------------   ------------  ------ ------ -----  --- --------
2022 09 25 07  14 05 52.836   -49 30 07.25  1.8567 1.5218  55.0 23.3 2.36  32
2022 09 25 08  14 05 52.831   -49 30 04.17  1.8576 1.5221  55.0 23.3 2.36  32
2022 09 25 09  14 05 52.828   -49 30 01.12  1.8585 1.5223  54.9 23.3 2.36  32
2022 09 25 10  14 05 52.827   -49 29 58.10  1.8594 1.5225  54.9 23.3 2.37  32
2022 09 25 11  14 05 52.827   -49 29 55.11  1.8602 1.5227  54.9 23.3 2.37  31
2022 09 25 12  14 05 52.830   -49 29 52.15  1.8611 1.5229  54.8 23.3 2.37  31
2022 09 25 13  14 05 52.836   -49 29 49.22  1.8620 1.5231  54.8 23.3 2.37  31
2022 09 25 14  14 05 52.843   -49 29 46.32  1.8629 1.5233  54.8 23.3 2.38  31
